Regional Weather Roundup
Issued by NWS

Home | Current Version | Previous Version | Text Only | Print | Product List | Glossary On
Versions: 1 2 3 4 5 6 7 8 9 10 11 12 13 14 15 16 17 18 19 20 21 22 23 24 25 26 27 28 29 30 31 32 33 34 35 36 37 38 39 40 41 42 43 44 45 46 47 48 49 50
000
ASUS43 KLSX 111457
RWRMO

WEATHER SUMMARY FOR MISSOURI
NATIONAL WEATHER SERVICE SPRINGFIELD MO
900 AM CST MON DEC 11 2017

NOTE: "FAIR" INDICATES FEW OR NO CLOUDS BELOW 12,000 FEET WITH NO
       SIGNIFICANT WEATHER AND/OR OBSTRUCTIONS TO VISIBILITY.
       CURRENT SKY AND/OR WEATHER CONDITIONS ARE NOT AVAILABLE FOR
       CHILLICOTHE AND FARMINGTON.

MOZ001>031-035>038-043-044-053-054-111600-
...NORTHERN AND WESTERN MISSOURI...

CITY           SKY/WX    TMP DP  RH WIND       PRES   REMARKS
KANSAS CTY INT PTSUNNY   46  18  32 W15       29.95S
LEE`S SUMMIT   SUNNY     46  18  32 W12       29.95F
ST JOSEPH      MOSUNNY   43  24  47 NW9       29.96R
CHILLICOTHE      N/A     43  21  41 W6        29.88F

$$
MOZ066>068-077>081-088>096-101>105-111600-
...SOUTHWEST MISSOURI...

CITY           SKY/WX    TMP DP  RH WIND       PRES   REMARKS
SPRINGFIELD    SUNNY     51  22  31 SW13      30.01F
JOPLIN         SUNNY     49  21  33 SW9G25    30.07F
BRANSON        SUNNY     50  18  27 W14       30.09S

$$
MOZ032>034-039>042-045>050-055>058-069>072-111600-
...CENTRAL MISSOURI...

CITY           SKY/WX    TMP DP  RH WIND       PRES   REMARKS
COLUMBIA       NOT AVBL
JEFFERSON CITY   N/A     42  25  50 MISG      29.92F
SEDALIA        MOSUNNY   43  23  45 SW16      29.94S
WARRENSBURG    SUNNY     39  21  48 SW7       29.95S

$$
MOZ051-052-059>065-111600-
...EAST CENTRAL MISSOURI...

CITY           SKY/WX    TMP DP  RH WIND       PRES   REMARKS
ST LOUIS INTL  PTSUNNY   43  27  53 S12       29.90F

$$
MOZ072>076-082>087-097>100-106>115-111600-
...SOUTH CENTRAL AND SOUTHEAST MISSOURI...

CITY           SKY/WX    TMP DP  RH WIND       PRES   REMARKS
CAPE GIRARDEAU SUNNY     34  29  82 CALM      30.07F
POPLAR BLUFF   SUNNY     39  29  67 SW6       30.08F
WEST PLAINS    SUNNY     45  25  45 SW9       30.06F

$$



USA.gov is the U.S. government's official web portal to all federal, state and local government web resources and services.